Regional Weather Roundup
Issued by NWS

Home | Current Version | Previous Version | Graphics & Text | Print | Product List | Glossary On
Versions: 1 2 3 4 5 6 7 8 9 10 11 12 13 14 15 16 17 18 19 20 21 22 23 24 25 26 27 28 29 30 31 32 33 34 35 36 37 38 39 40 41 42 43 44 45 46 47 48 49 50
000
ASUS43 KLSX 260259
RWRMO

WEATHER SUMMARY FOR MISSOURI
NATIONAL WEATHER SERVICE SPRINGFIELD MO
1000 PM CDT MON MAY 25 2015

NOTE: "FAIR" INDICATES FEW OR NO CLOUDS BELOW 12,000 FEET WITH NO
       SIGNIFICANT WEATHER AND/OR OBSTRUCTIONS TO VISIBILITY.
       CURRENT SKY AND/OR WEATHER CONDITIONS ARE NOT AVAILABLE FOR
       CHILLICOTHE AND FARMINGTON.

MOZ001>031-035>038-043-044-053-054-260400-
...NORTHERN AND WESTERN MISSOURI...

CITY           SKY/WX    TMP DP  RH WIND       PRES   REMARKS
KANSAS CTY INT CLOUDY    65  59  81 N13       29.85S
KANSAS C DTWN  CLOUDY    74  64  71 E5        29.81F
LEE`S SUMMIT   CLOUDY    73  65  75 E3        29.83F
ST JOSEPH      CLOUDY    61  59  93 N6        29.85F
KIRKSVILLE     PTCLDY    70  66  87 SE8       29.89R

$$
MOZ066>068-077>081-088>096-101>105-260400-
...SOUTHWEST MISSOURI...

CITY           SKY/WX    TMP DP  RH WIND       PRES   REMARKS
SPRINGFIELD    LGT RAIN  72  65  78 SE14      29.86S
JOPLIN         LGT RAIN  64  62  93 SE6       29.84F

$$
MOZ032>034-039>042-045>050-055>058-069>072-260400-
...CENTRAL MISSOURI...

CITY           SKY/WX    TMP DP  RH WIND       PRES   REMARKS
COLUMBIA       CLOUDY    73  64  73 SE9       29.89F
JEFFERSON CITY CLOUDY    74  64  71 SE8       29.88S
ROLLA          CLOUDY    71  65  81 SE8       29.91S
SEDALIA        CLOUDY    74  65  73 SE9       29.86F
OSAGE BEACH    CLOUDY    73  63  68 SE6       29.88R

$$
MOZ051-052-059>065-260400-
...EAST CENTRAL MISSOURI...

CITY           SKY/WX    TMP DP  RH WIND       PRES   REMARKS
ST LOUIS INTL  MOCLDY    77  66  68 SE12      29.95S
SPIRIT OF STL  MOCLDY    75  66  73 VRB3      29.92F
ST CHARLES     PTCLDY    75  66  73 SE10      29.93S

$$
MOZ072>076-082>087-097>100-106>115-260400-
...SOUTH CENTRAL AND SOUTHEAST MISSOURI...

CITY           SKY/WX    TMP DP  RH WIND       PRES   REMARKS
CAPE GIRARDEAU CLEAR     71  68  90 SE7       29.99F
FARMINGTON     MOCLDY    70  66  88 SE10      30.00F
POPLAR BLUFF   MOCLDY    73  68  84 SE12      29.97R
WEST PLAINS    CLOUDY    72  66  81 SE7       29.95R

$$



USA.gov is the U.S. government's official web portal to all federal, state and local government web resources and services.